Flag for Germany Weather past 2 weeks in Gifhorn, Lower Saxony, Germany

Now
73 °F

Sunny.


Feels Like: 76 °F
Forecast: 67 / 80 °F
Wind: 3 mph from North

Location: Braunschweig

Current Time: Jul 28, 2014 at 11:11:26 PM

Latest Report: Jul 28, 2014 at 9:50 PM


Visibility: 10 mi

Pressure: 29.86 "Hg

Humidity: 69%

Dew point: 63 °F

Location of GifhornLocation

Historic Weather in Gifhorn — Graph

°F

Gifhorn temperature yesterday

Maximum temperature yesterday: 82 °F (at 2:50 PM)
Minimum temperature yesterday: 68 °F (at 8:50 AM)
Average temperature yesterday: 78 °F

Past Weeks' High & Low Weather Summary

 TemperatureHumidityPressure
High93 °F (Jul 20, 1:50 PM)100% (Jul 14, 5:50 AM)30.21 "Hg (Jul 14, 5:50 AM)
Low55 °F (Jul 17, 5:50 AM)24% (Jul 19, 4:50 PM)29.74 "Hg (Jul 14, 5:50 AM)
Average74 °F63%30.01 "Hg
* Reported Jul 14 5:50 AM — Jul 28 9:50 PM, Gifhorn, Weather by CustomWeather, © 2014

Note: Actual official high and low records may vary slightly from our data, if they occured in-between our weather recording intervals... More about our weather records

Advertising

Gifhorn weather history for previous 24 hours

 ConditionsComfort  
Time TempWeatherWind HumidityBarometerVisibility
9:50 PM
Jul 28
73 °FSunny.3 mph69%29.86 "Hg10 mi
9:20 PM75 °FPassing clouds.7 mph65%29.86 "HgN/A
8:50 PM77 °FSunny.7 mph61%29.86 "Hg10 mi
8:20 PM79 °FPassing clouds.7 mph58%29.86 "HgN/A
7:50 PM79 °FSunny.6 mph58%29.86 "Hg10 mi
7:20 PM79 °FPassing clouds.8 mph54%29.86 "HgN/A
6:50 PM81 °FPassing clouds.10 mph54%29.83 "HgN/A
6:20 PM81 °FPassing clouds.9 mph54%29.86 "HgN/A
5:50 PM82 °FPassing clouds.8 mph51%29.83 "HgN/A
5:20 PM81 °FPassing clouds.7 mph51%29.86 "HgN/A
4:50 PM82 °FPassing clouds.10 mph55%29.86 "HgN/A
4:20 PM82 °FPassing clouds.8 mph51%29.86 "HgN/A
3:50 PM82 °FPassing clouds.8 mph51%29.86 "HgN/A
3:20 PM81 °FPassing clouds.8 mph54%29.89 "HgN/A
2:50 PM81 °FScattered clouds.8 mph54%29.89 "HgN/A
2:20 PM81 °FScattered clouds.7 mph58%29.89 "HgN/A
1:50 PM81 °FScattered clouds.5 mph54%29.92 "HgN/A
1:20 PM79 °FScattered clouds.6 mph61%29.92 "HgN/A
12:50 PM79 °FScattered clouds.6 mph61%29.92 "HgN/A
12:20 PM79 °FScattered clouds.7 mph61%29.92 "HgN/A
11:50 AM77 °FScattered clouds.7 mph61%29.92 "HgN/A
10:50 AM75 °FSunny.2 mph74%29.95 "Hg10 mi
10:20 AM73 °FSunny.No wind74%29.95 "Hg10 mi
9:50 AM73 °FSunny.3 mph78%29.95 "Hg10 mi
8:50 AM68 °FPassing clouds.2 mph94%29.95 "Hg4 mi
8:20 AM68 °FFog.5 mph100%29.95 "Hg3 mi
7:50 AM66 °FFog.No wind100%29.95 "Hg2 mi
7:20 AM64 °FFog.No wind100%29.95 "Hg2 mi
6:50 AM63 °FFog.No wind100%29.95 "Hg2 mi
6:20 AM63 °FPartly cloudy.No wind100%29.95 "Hg4 mi
5:50 AM61 °FPartly cloudy.No wind100%29.95 "Hg4 mi
Weather by CustomWeather, © 2014

See weather overviewHow to use our weather pages